EZY42JP LFRB-EGKK

Flight info

Callsign EZY42JP
Flight time 0h 45m
Altitude 28000
Route NORBU DCT NOZHU DCT OTMET
Aircraft A320/M-SDE2E3FGHIJ1RWXYZ/LB1

Departure

Time 2026-04-26 13:51
Airport Brest Bretagne airport (LFRB)

Arrival

Time 2026-04-26 14:37
Airport London Gatwick Airport (EGKK)
Time Latitude Longitude Altitude Speed Heading
2026-04-26 13:35 48.44419 -4.42103 331 ft 0 kts 191°
2026-04-26 13:43 48.44422 -4.42102 332 ft 2 kts 191°
2026-04-26 13:43 48.44441 -4.42096 327 ft 3 kts 191°
2026-04-26 13:44 48.44461 -4.42090 329 ft 3 kts 191°
2026-04-26 13:44 48.44481 -4.42084 328 ft 3 kts 191°
2026-04-26 13:44 48.44500 -4.42078 327 ft 3 kts 191°
2026-04-26 13:44 48.44520 -4.42072 329 ft 3 kts 191°
2026-04-26 13:45 48.44540 -4.42066 328 ft 3 kts 191°
2026-04-26 13:45 48.44560 -4.42060 328 ft 3 kts 191°
2026-04-26 13:45 48.44569 -4.42057 328 ft 0 kts 191°
2026-04-26 13:47 48.44576 -4.42006 331 ft 6 kts 63°
2026-04-26 13:47 48.44591 -4.41944 330 ft 7 kts 70°
2026-04-26 13:47 48.44616 -4.41839 329 ft 15 kts 71°
2026-04-26 13:48 48.44646 -4.41704 331 ft 13 kts 71°
2026-04-26 13:48 48.44694 -4.41618 332 ft 10 kts 14°
2026-04-26 13:48 48.44761 -4.41640 331 ft 10 kts 343°
2026-04-26 13:48 48.44824 -4.41629 334 ft 9 kts 34°
2026-04-26 13:49 48.44854 -4.41550 332 ft 9 kts 69°
2026-04-26 13:49 48.44875 -4.41463 332 ft 9 kts 72°
2026-04-26 13:49 48.44909 -4.41310 325 ft 22 kts 71°
2026-04-26 13:49 48.44953 -4.41119 323 ft 20 kts 71°
2026-04-26 13:50 48.44997 -4.40913 321 ft 22 kts 71°
2026-04-26 13:50 48.45054 -4.40726 324 ft 17 kts 46°
2026-04-26 13:50 48.45049 -4.40684 324 ft 1 kts 219°
2026-04-26 13:50 48.45048 -4.40691 324 ft 2 kts 250°
2026-04-26 13:51 48.44989 -4.40965 322 ft 64 kts 251°
2026-04-26 13:51 48.44772 -4.41917 334 ft 125 kts 250°
2026-04-26 13:51 48.44425 -4.43400 421 ft 161 kts 252°
2026-04-26 13:51 48.44052 -4.44963 1136 ft 158 kts 252°
2026-04-26 13:52 48.43693 -4.46505 1740 ft 159 kts 252°
2026-04-26 13:52 48.43312 -4.48202 2053 ft 182 kts 251°
2026-04-26 13:52 48.43045 -4.50168 2318 ft 205 kts 274°
2026-04-26 13:52 48.43628 -4.52217 2591 ft 230 kts 315°
2026-04-26 13:53 48.45104 -4.53331 2962 ft 254 kts 353°
2026-04-26 13:53 48.46916 -4.53198 3606 ft 268 kts 10°
2026-04-26 13:53 48.48760 -4.52529 4432 ft 274 kts 16°
2026-04-26 13:53 48.50581 -4.51698 5309 ft 278 kts 18°
2026-04-26 13:54 48.52447 -4.50829 6157 ft 283 kts 17°
2026-04-26 13:54 48.54352 -4.49981 6980 ft 287 kts 16°
2026-04-26 13:54 48.56292 -4.49165 7816 ft 290 kts 15°
2026-04-26 13:55 48.60252 -4.47598 9486 ft 297 kts 13°
2026-04-26 13:55 48.61594 -4.47082 10034 ft 300 kts 13°
2026-04-26 13:55 48.66562 -4.45200 10986 ft 339 kts 13°
2026-04-26 13:56 48.68888 -4.44320 11593 ft 347 kts 13°
2026-04-26 13:56 48.71246 -4.43422 12284 ft 352 kts 13°
2026-04-26 13:56 48.73606 -4.42509 12979 ft 357 kts 15°
2026-04-26 13:56 48.75939 -4.41140 13670 ft 362 kts 22°
2026-04-26 13:57 48.78262 -4.39566 14326 ft 367 kts 22°
2026-04-26 13:57 48.80607 -4.37969 14931 ft 371 kts 23°
2026-04-26 13:57 48.82969 -4.36357 15582 ft 373 kts 23°
2026-04-26 13:57 48.85351 -4.34732 16200 ft 377 kts 22°
2026-04-26 13:58 48.87758 -4.33094 16805 ft 381 kts 22°
2026-04-26 13:58 48.90188 -4.31442 17396 ft 384 kts 22°
2026-04-26 13:58 48.92648 -4.29765 17988 ft 388 kts 22°
2026-04-26 13:58 48.95096 -4.28094 18560 ft 392 kts 22°
2026-04-26 13:59 48.97605 -4.26374 19065 ft 396 kts 22°
2026-04-26 13:59 49.00127 -4.24641 19586 ft 399 kts 22°
2026-04-26 13:59 49.02680 -4.22890 20132 ft 402 kts 22°
2026-04-26 14:00 49.10411 -4.17599 21655 ft 412 kts 22°
2026-04-26 14:00 49.13042 -4.15789 22163 ft 416 kts 22°
2026-04-26 14:00 49.14791 -4.14584 22494 ft 418 kts 22°
2026-04-26 14:01 49.18372 -4.12114 23170 ft 423 kts 23°
2026-04-26 14:01 49.21067 -4.10252 23669 ft 426 kts 23°
2026-04-26 14:01 49.23777 -4.08381 24099 ft 429 kts 23°
2026-04-26 14:01 49.26476 -4.06519 24498 ft 432 kts 23°
2026-04-26 14:02 49.29230 -4.04617 24911 ft 434 kts 23°
2026-04-26 14:02 49.31991 -4.02704 25290 ft 437 kts 23°
2026-04-26 14:02 49.34771 -4.00773 25676 ft 439 kts 23°
2026-04-26 14:02 49.37562 -3.98831 26096 ft 440 kts 22°
2026-04-26 14:03 49.39415 -3.97540 26359 ft 441 kts 22°
2026-04-26 14:03 49.43136 -3.94945 26854 ft 444 kts 22°
2026-04-26 14:03 49.45052 -3.93609 27100 ft 445 kts 22°
2026-04-26 14:03 49.47848 -3.91657 27452 ft 448 kts 22°
2026-04-26 14:04 49.50703 -3.89661 27807 ft 450 kts 22°
2026-04-26 14:04 49.53569 -3.87651 28146 ft 452 kts 22°
2026-04-26 14:04 49.56426 -3.85643 28242 ft 448 kts 22°
2026-04-26 14:04 49.59217 -3.83677 28255 ft 432 kts 22°
2026-04-26 14:05 49.61901 -3.81782 28254 ft 427 kts 22°
2026-04-26 14:05 49.67293 -3.77984 28256 ft 424 kts 22°
2026-04-26 14:06 49.72259 -3.73041 28258 ft 427 kts 37°
2026-04-26 14:06 49.76903 -3.67293 28261 ft 427 kts 37°
2026-04-26 14:07 49.81516 -3.61578 28244 ft 426 kts 37°
2026-04-26 14:07 49.86156 -3.55819 28255 ft 426 kts 37°
2026-04-26 14:08 49.90779 -3.50072 28258 ft 425 kts 37°
2026-04-26 14:08 49.95374 -3.44352 28266 ft 425 kts 37°
2026-04-26 14:09 49.99985 -3.38580 28264 ft 424 kts 37°
2026-04-26 14:09 50.04591 -3.32801 28264 ft 424 kts 37°
2026-04-26 14:10 50.09151 -3.27059 28259 ft 424 kts 37°
2026-04-26 14:10 50.13742 -3.21267 28262 ft 424 kts 37°
2026-04-26 14:11 50.20614 -3.12583 28284 ft 422 kts 37°
2026-04-26 14:11 50.25144 -3.06839 28282 ft 421 kts 37°
2026-04-26 14:12 50.29683 -3.01059 28281 ft 420 kts 37°
2026-04-26 14:12 50.34228 -2.95267 28275 ft 420 kts 37°
2026-04-26 14:13 50.41000 -2.86612 28280 ft 420 kts 37°
2026-04-26 14:14 50.45524 -2.80797 28277 ft 419 kts 37°
2026-04-26 14:14 50.50020 -2.75018 28268 ft 419 kts 38°
2026-04-26 14:15 50.54538 -2.69197 28266 ft 419 kts 38°
2026-04-26 14:15 50.59020 -2.63391 28266 ft 419 kts 38°
2026-04-26 14:15 50.61262 -2.60481 28109 ft 415 kts 38°
2026-04-26 14:16 50.63473 -2.57591 27855 ft 407 kts 41°
2026-04-26 14:16 50.65360 -2.54317 27593 ft 402 kts 54°
2026-04-26 14:16 50.66734 -2.50524 27271 ft 396 kts 68°
2026-04-26 14:16 50.67537 -2.46431 26997 ft 394 kts 81°
2026-04-26 14:17 50.67785 -2.42147 26735 ft 392 kts 93°
2026-04-26 14:17 50.67624 -2.37860 26468 ft 391 kts 95°
2026-04-26 14:17 50.67443 -2.33581 26193 ft 389 kts 95°
2026-04-26 14:17 50.67263 -2.29316 25928 ft 388 kts 96°
2026-04-26 14:18 50.67082 -2.25078 25665 ft 387 kts 96°
2026-04-26 14:18 50.66904 -2.20903 25407 ft 386 kts 96°
2026-04-26 14:18 50.66724 -2.16692 25144 ft 384 kts 96°
2026-04-26 14:18 50.66543 -2.12497 24880 ft 383 kts 96°
2026-04-26 14:19 50.66356 -2.08320 24623 ft 381 kts 96°
2026-04-26 14:19 50.66165 -2.04150 24365 ft 380 kts 96°
2026-04-26 14:19 50.66121 -1.99979 24105 ft 379 kts 90°
2026-04-26 14:19 50.66172 -1.95873 23846 ft 378 kts 90°
2026-04-26 14:20 50.66224 -1.91737 23563 ft 377 kts 90°
2026-04-26 14:20 50.66274 -1.87613 23312 ft 375 kts 90°
2026-04-26 14:20 50.66321 -1.83499 23015 ft 376 kts 90°
2026-04-26 14:20 50.66368 -1.79384 22810 ft 375 kts 90°
2026-04-26 14:21 50.66413 -1.75284 22558 ft 374 kts 90°
2026-04-26 14:21 50.66457 -1.71179 22299 ft 373 kts 90°
2026-04-26 14:21 50.66498 -1.67107 22052 ft 372 kts 90°
2026-04-26 14:21 50.66536 -1.63077 21804 ft 370 kts 90°
2026-04-26 14:22 50.66573 -1.59021 21554 ft 369 kts 90°
2026-04-26 14:22 50.66609 -1.54971 21299 ft 368 kts 90°
2026-04-26 14:22 50.66616 -1.50934 20922 ft 367 kts 92°
2026-04-26 14:22 50.66576 -1.46913 20537 ft 365 kts 93°
2026-04-26 14:23 50.66511 -1.42931 20158 ft 363 kts 93°
2026-04-26 14:23 50.66438 -1.38957 19776 ft 361 kts 93°
2026-04-26 14:23 50.66485 -1.35062 19410 ft 360 kts 84°
2026-04-26 14:23 50.67009 -1.31211 19038 ft 359 kts 71°
2026-04-26 14:24 50.67921 -1.27535 18661 ft 358 kts 68°
2026-04-26 14:24 50.68855 -1.23905 18250 ft 356 kts 68°
2026-04-26 14:24 50.69793 -1.20297 17794 ft 354 kts 65°
2026-04-26 14:24 50.71143 -1.17041 16801 ft 357 kts 47°
2026-04-26 14:25 50.72802 -1.14100 15856 ft 360 kts 47°
2026-04-26 14:25 50.74442 -1.11217 15209 ft 354 kts 47°
2026-04-26 14:25 50.76074 -1.08345 14533 ft 348 kts 48°
2026-04-26 14:25 50.77682 -1.05505 13834 ft 343 kts 48°
2026-04-26 14:26 50.79261 -1.02706 13097 ft 339 kts 48°
2026-04-26 14:26 50.80823 -0.99930 12356 ft 335 kts 48°
2026-04-26 14:26 50.82348 -0.97218 11623 ft 332 kts 49°
2026-04-26 14:26 50.83855 -0.94535 11246 ft 316 kts 48°
2026-04-26 14:27 50.85299 -0.91961 10736 ft 308 kts 48°
2026-04-26 14:27 50.86717 -0.89437 10148 ft 304 kts 48°
2026-04-26 14:27 50.88113 -0.86951 9535 ft 299 kts 48°
2026-04-26 14:27 50.89487 -0.84496 8859 ft 296 kts 49°
2026-04-26 14:28 50.90824 -0.82098 8229 ft 292 kts 49°
2026-04-26 14:28 50.92160 -0.79699 7605 ft 287 kts 49°
2026-04-26 14:28 50.93476 -0.77344 7093 ft 279 kts 49°
2026-04-26 14:28 50.94740 -0.75084 6681 ft 269 kts 49°
2026-04-26 14:29 50.95958 -0.72900 6256 ft 259 kts 50°
2026-04-26 14:29 50.97132 -0.70795 5866 ft 249 kts 50°
2026-04-26 14:29 50.98261 -0.68768 5497 ft 248 kts 50°
2026-04-26 14:29 50.99379 -0.66754 5261 ft 239 kts 50°
2026-04-26 14:30 51.00458 -0.64809 4879 ft 241 kts 50°
2026-04-26 14:30 51.01544 -0.62848 4543 ft 232 kts 50°
2026-04-26 14:30 51.02607 -0.60927 4059 ft 232 kts 51°
2026-04-26 14:30 51.03652 -0.59036 3780 ft 220 kts 50°
2026-04-26 14:31 51.04634 -0.57262 3641 ft 206 kts 50°
2026-04-26 14:31 51.05551 -0.55608 3585 ft 193 kts 50°
2026-04-26 14:31 51.06408 -0.54056 3460 ft 187 kts 52°
2026-04-26 14:31 51.07264 -0.52506 3374 ft 186 kts 51°
2026-04-26 14:32 51.08120 -0.50954 3299 ft 188 kts 50°
2026-04-26 14:32 51.08977 -0.49402 3211 ft 187 kts 51°
2026-04-26 14:32 51.09830 -0.47851 3110 ft 185 kts 52°
2026-04-26 14:32 51.10677 -0.46304 3014 ft 184 kts 54°
2026-04-26 14:33 51.11252 -0.44533 3013 ft 182 kts 76°
2026-04-26 14:33 51.11536 -0.42566 2936 ft 182 kts 79°
2026-04-26 14:33 51.11807 -0.40629 2727 ft 173 kts 79°
2026-04-26 14:33 51.12058 -0.38841 2529 ft 160 kts 80°
2026-04-26 14:34 51.12293 -0.37164 2328 ft 149 kts 79°
2026-04-26 14:34 51.12518 -0.35554 2116 ft 147 kts 79°
2026-04-26 14:34 51.12733 -0.34013 1961 ft 142 kts 80°
2026-04-26 14:34 51.12945 -0.32493 1750 ft 139 kts 80°
2026-04-26 14:35 51.13154 -0.30995 1558 ft 138 kts 81°
2026-04-26 14:35 51.13363 -0.29495 1376 ft 139 kts 79°
2026-04-26 14:35 51.13570 -0.28007 1183 ft 137 kts 78°
2026-04-26 14:35 51.13776 -0.26519 977 ft 136 kts 78°
2026-04-26 14:36 51.13976 -0.25054 751 ft 134 kts 77°
2026-04-26 14:36 51.14171 -0.23584 639 ft 136 kts 78°
2026-04-26 14:36 51.14379 -0.22107 418 ft 136 kts 76°
2026-04-26 14:36 51.14574 -0.20742 265 ft 134 kts 76°
2026-04-26 14:37 51.14772 -0.19359 209 ft 111 kts 78°
2026-04-26 14:37 51.14871 -0.18650 212 ft 22 kts 61°
2026-04-26 14:37 51.14934 -0.18528 208 ft 13 kts 54°
2026-04-26 14:37 51.14994 -0.18407 203 ft 14 kts 51°
2026-04-26 14:38 51.15058 -0.18278 209 ft 16 kts 51°
2026-04-26 14:38 51.15082 -0.18229 203 ft 0 kts 52°
2026-04-26 14:39 51.15091 -0.18213 203 ft 4 kts 50°
2026-04-26 14:39 51.15114 -0.18158 209 ft 9 kts 61°
2026-04-26 14:40 51.15131 -0.18057 212 ft 10 kts 76°
2026-04-26 14:40 51.15148 -0.17940 211 ft 12 kts 77°
2026-04-26 14:40 51.15169 -0.17786 205 ft 16 kts 78°
2026-04-26 14:40 51.15194 -0.17602 204 ft 18 kts 77°
2026-04-26 14:41 51.15225 -0.17389 208 ft 19 kts 76°
2026-04-26 14:41 51.15313 -0.17357 204 ft 16 kts 347°
2026-04-26 14:41 51.15430 -0.17398 204 ft 17 kts 347°
2026-04-26 14:41 51.15524 -0.17440 211 ft 6 kts 314°
2026-04-26 14:42 51.15531 -0.17529 208 ft 12 kts 272°
2026-04-26 14:42 51.15518 -0.17670 214 ft 14 kts 258°
2026-04-26 14:42 51.15505 -0.17780 208 ft 8 kts 278°
2026-04-26 14:42 51.15548 -0.17810 207 ft 4 kts 347°
2026-04-26 14:43 51.15563 -0.17816 204 ft 0 kts 347°